PulseSat

PulseSat

GSAT0207 (GALILEO 15)

Last updated on Dec. 10, 2018, 12:08 a.m. UTC

1 41859U 16069A   18343.36038716  .00000066  00000-0  00000+0 0  9993
2 41859  54.5885 177.3001 0002538 310.5734  49.4541  1.70473406 12804
UTC
Height (km)
Latitude
Longitude
Inclination
Orbital Period

Next 30 passes for location: Hong Kong

Rise time Rise Azimuth (degrees) Set time Set Azimuth (degrees) Duration Max altitude (degrees)

No matching passes for this satellites

PulseSat

PulseSat is the new satellites software and hardware trackering solution by Pulsely.
Satellite Two Line Element Set source: US Air Force Space Command

Download PulseSat for iOS
© 2017 Pulsely Limited